sat.trackr.live / text

‹ back to catalog

UNICORN-2L

NORAD 58727 · 2023-185R

PAYLOAD ACTIVE UNKNOWN

§ Identity

Operator
Country
GER
Launch date
2023-12-01
Launch site
AFWTR
Launch vehicle
Mass (kg)
RCS (m²)

External: N2YO · Heavens-Above · Gunter

§ Orbital elements

Epoch: 2026-05-25T04:12:29.285280Z

Period
94.69 min
Inclination
97.5397°
Eccentricity
0.0013575
Mean motion
15.20821316 rev/d
Perigee alt
494.0 km
Apogee alt
512.7 km
Semi-major
6,881.5 km
B*
3.3755e-4
RAAN
219.0107°
Arg perigee
39.6116°
Mean anomaly
320.6108°
Rev number
13,129

§ Raw data

UNICORN-2L1 58727U 23185R   26145.17533895  .00007395  00000+0  33755-3 0  99962 58727  97.5397 219.0107 0013575  39.6116 320.6108 15.20821316131293

JSON: /api/v1/satellites/58727 · /tle

For live sub-satellite position, see the globe view (requires WebGL).

§ Visibility from observer

Set your observer location to see the next 7 days of passes ≥ 10°. The values pass through the URL so the page stays shareable.

No JS? Fill the form by hand. The geolocation button needs JavaScript.